map of ABV home
Great Circle Mapper logo
ABV - Airport
Location
City:  Abuja, Nigeria
Name:Nnamdi Azikiwe International Airport
ICAO / IATA:DNAA / ABV

Details
Type:Airport (Aerodrome, Airfield)
Use:Public/Civil, International (customs port of entry)
Latitude:900'24"N (9.006792)
Longitude:715'47"E (7.263172)
Datum:WGS 1984
Elevation:1123 ft (342 m)
Variation:1.10W (WMM2015 magnetic declination)
0.10 annual change
Runways:1
Longest:11842 × 197 ft (3609 × 60 m), paved

Time
Time Zone:UTC+1
Local Time:

Weather
METAR:DNAA 291400Z 22008KT 160V280 9999 SCT014 34/16 Q1010 NOSIG
TAF:DNAA 291540Z 2918/3024 VRB02KT 9999 SCT015
BECMG 2919/2921 06007KT CAVOK
TEMPO 3004/3008 VRB02KT 5000 HZ
BECMG 3008/3010 24006KT 8000 NSW FEW012

Related Locations
Nearby:
Farthest:AAU: 12121 mi / 19506 km
Asau, WS

Find:

   beyond  
but within

Other Information
Maps:
NOTAMs:
Links:
Sources:

  
flag of Nigeria   

Sectional Chart

Flight Planning
at skyvector.com

Satellite Image

Google Maps Satellite View

 

Copyright © 2004-2015 Karl L. Swartz. All rights reserved.
The Great Circle Mapper name and logo are trademarks of the Great Circle Mapper.
All other trademarks mentioned herein belong to their respective owners.
Please see credits for attibutions and further copyright information.

  Follow gcmap on Facebook Follow gcmap on Twitter

hCard Microformat

Geo Microformat